Location: Newark
(48.3453°N, 0.5589°E)
Time: 15:04:09
(UTC+00:00)

A-11 Canister half - Pass Details

Date: 07 December 2019
Orbit: 1517 x 1683 km, 47.2° (Epoch: 27 January)

Event Time Altitude Azimuth Distance (km) Brightness Sun altitude
Rises 19:26:24 0° 291° (WNW) 4,905 12.6 -32.7°
Reaches altitude 10° 19:29:52 10° 283° (WNW) 3,929 11.9 -33.3°
Maximum altitude 19:38:39 36° 222° (SW) 2,460 10.2 -34.7°
Enters shadow 19:44:38 20° 172° (S) 3,230 10.5 -35.7°
Drops below altitude 10° 19:47:28 10° 161° (SSE) 3,930 - -36.2°
Sets 19:50:57 0° 153° (SSE) 4,905 - -36.7°
